Flag for Germany Weather past 2 weeks in Kulmbach, Bavaria, Germany

Now
52 °F

Overcast.


Feels Like: 50 °F
Forecast: 53 / 64 °F
Wind: 6 mph from Southwest

Location: Hof

Current Time: Apr 26, 2015 at 12:21:45 AM

Latest Report: Apr 25, 2015 at 10:00 PM


Visibility: 28 mi

Pressure: 29.84 "Hg

Humidity: 87%

Dew point: 48 °F

Location of KulmbachLocation

Historic Weather in Kulmbach — Graph

°F

Kulmbach temperature yesterday

Maximum temperature yesterday: 62 °F (at 1:00 PM)
Minimum temperature yesterday: 41 °F (at 6:00 AM)
Average temperature yesterday: 52 °F

Past Weeks' High & Low Weather Summary

 TemperatureHumidityPressure
High69 °F (Apr 15, 6:00 PM)100% (Apr 23, 2:00 AM)30.48 "Hg (Apr 23, 2:00 AM)
Low27 °F (Apr 19, 6:00 AM)25% (Apr 21, 6:00 PM)29.79 "Hg (Apr 25, 4:00 PM)
Average48 °F66%30.17 "Hg
* Reported Apr 10 10:00 PM — Apr 25 10:00 PM, Kulmbach, Weather by CustomWeather, © 2015

Note: Actual official high and low records may vary slightly from our data, if they occured in-between our weather recording intervals... More about our weather records

Advertising

Kulmbach weather history for previous 24 hours

 ConditionsComfort  
Time TempWeatherWind HumidityBarometerVisibility
10:00 PM
Sat, Apr 25
52 °FOvercast.6 mph87%29.84 "Hg28 mi
9:00 PM53 °FLight rain. Overcast.3 mph87%29.83 "Hg9 mi
8:00 PM54 °FLight rain. Overcast.5 mph83%29.81 "Hg10 mi
7:00 PM58 °FLight rain. Overcast.5 mph65%29.79 "Hg16 mi
6:00 PM59 °FOvercast.6 mph58%29.79 "Hg22 mi
4:00 PM60 °FOvercast.5 mph54%29.79 "Hg25 mi
3:00 PM59 °FOvercast.6 mph51%29.81 "Hg19 mi
2:00 PM60 °FOvercast.5 mph48%29.81 "Hg22 mi
1:00 PM62 °FOvercast.3 mph41%29.81 "Hg19 mi
12:00 PM61 °FOvercast.3 mph40%29.82 "Hg19 mi
10:00 AM54 °FOvercast.3 mph58%29.85 "Hg12 mi
9:00 AM50 °FOvercast.2 mph68%29.88 "Hg11 mi
8:00 AM45 °FPartly sunny.1 mph71%29.90 "Hg11 mi
7:00 AM42 °FPartly sunny.1 mph72%29.91 "Hg11 mi
6:00 AM41 °FPartly sunny.2 mph74%29.92 "Hg9 mi
3:00 AM43 °FClear.1 mph74%29.93 "Hg11 mi
1:00 AM45 °FOvercast.3 mph70%29.94 "Hg10 mi
12:00 AM47 °FOvercast.3 mph66%29.94 "Hg11 mi
Weather by CustomWeather, © 2015

See weather overviewHow to use our weather pages